FW6724 Weather Reports


Display with metric or nautical units.
time (UTC)temp
F
wind
direction
speed
MPH
gust
MPH
rain 1hr
in
rain 24hr
in
rain mn
in
humidity
%
barometer
mb
20260509094543 62 291 4.0 14.0 0.06 0.24 0.22 63 1012.8
20260509093034 61 263 8.0 16.0 0.04 0.21 0.18 63 1012.7
20260509091531 61 246 8.0 17.0 0.04 0.19 0.17 64 1012.1
20260509090054 60 273 7.0 10.0 0.03 0.18 0.16 66 1011.7
20260509084543 60 290 7.0 14.0 0.06 0.18 0.15 66 1011.0
20260509083046 60 271 9.0 12.0 0.04 0.16 0.14 66 1010.6
20260509081536 59 236 7.0 12.0 0.05 0.14 0.12 67 1011.3
20260509080049 59 232 9.0 14.0 0.07 0.14 0.12 67 1010.7
20260509074538 59 308 4.0 8.0 0.05 0.11 0.09 67 1010.5
20260509073036 59 294 5.0 9.0 0.06 0.11 0.09 66 1010.8
20260509071535 60 307 3.0 6.0 0.05 0.09 0.07 64 1010.2
20260509070039 61 242 3.0 6.0 0.05 0.07 0.05 63 1010.9
20260509064538 61 94 1.0 4.0 0.03 0.06 0.03 62 1010.7
20260509063031 62 0 0.0 3.0 0.03 0.05 0.03 60 1011.0
20260509061536 63 84 1.0 7.0 0.01 0.03 0.01 58 1010.6
20260509060036 63 210 2.0 9.0 0.00 0.02 0.00 56 1011.1
20260509054539 62 232 1.0 8.0 0.00 0.02 0.00 58 1011.1
20260509053044 62 288 3.0 5.0 0.00 0.02 0.00 58 1009.8
20260509051533 62 290 3.0 11.0 0.00 0.02 0.00 58 1010.0
20260509050051 62 284 5.0 10.0 0.00 0.02 0.00 58 1010.2
20260509044535 61 274 6.0 9.0 0.00 0.02 0.00 60 1010.4
20260509043042 61 289 6.0 10.0 0.00 0.02 0.00 62 1010.6
20260509041536 61 293 2.0 5.0 0.00 0.02 0.00 63 1010.6
20260509040039 61 265 3.0 7.0 0.00 0.02 0.00 63 1010.4
20260509034533 61 281 3.0 8.0 0.00 0.02 0.00 63 1010.4
20260509033039 61 281 2.0 4.0 0.00 0.02 0.00 63 1010.6
20260509031536 61 281 2.0 4.0 0.00 0.02 0.00 63 1010.8
20260509030034 61 267 3.0 7.0 0.00 0.02 0.00 63 1010.9
20260509024539 61 248 2.0 6.0 0.00 0.02 0.00 62 1010.8
20260509023036 62 0 0.0 0.0 0.00 0.02 0.00 61 1010.9
20260509021532 62 0 0.0 0.0 0.00 0.02 0.00 61 1011.1
20260509020038 62 0 0.0 0.0 0.00 0.02 0.00 62 1011.3
20260509014536 62 106 0.0 3.0 0.00 0.02 0.00 62 1011.5
20260509013038 62 0 0.0 0.0 0.00 0.02 0.00 63 1011.7
20260509011538 62 0 0.0 0.0 0.00 0.02 0.00 63 1011.8
20260509010037 62 0 0.0 0.0 0.00 0.02 0.00 62 1011.9
20260509004536 62 0 0.0 0.0 0.00 0.02 0.00 62 1012.1
20260509003036 62 0 0.0 0.0 0.00 0.02 0.00 61 1012.4
20260509001537 62 0 0.0 0.0 0.00 0.02 0.00 61 1012.7
20260509000043 62 0 0.0 0.0 0.00 0.02 0.00 60 1012.9
20260508234537 62 0 0.0 0.0 0.00 0.02 0.00 61 1013.0
20260508233036 62 0 0.0 0.0 0.00 0.02 0.00 61 1013.1
20260508231545 62 0 0.0 0.0 0.00 0.02 0.00 61 1013.2
20260508230037 62 0 0.0 0.0 0.00 0.02 0.00 61 1013.4
20260508224559 63 0 0.0 0.0 0.00 0.02 0.00 61 1013.6
20260508223038 63 132 1.0 3.0 0.00 0.02 0.00 61 1013.8
20260508221545 63 0 0.0 0.0 0.00 0.02 0.00 60 1013.9
20260508220036 63 0 0.0 0.0 0.00 0.02 0.00 60 1013.8
20260508214541 63 0 0.0 1.0 0.00 0.02 0.02 60 1013.8
20260508213039 63 131 2.0 5.0 0.00 0.02 0.02 59 1013.8
20260508211537 63 121 1.0 4.0 0.00 0.02 0.02 60 1013.8
20260508210037 63 0 0.0 0.0 0.00 0.02 0.02 60 1013.4
20260508204540 63 0 0.0 0.0 0.00 0.02 0.02 60 1013.5
20260508203039 63 0 0.0 0.0 0.00 0.02 0.02 59 1013.5
20260508201541 64 0 0.0 3.0 0.00 0.02 0.02 59 1013.4
20260508200046 64 0 1.0 4.0 0.00 0.02 0.02 58 1013.5
20260508194536 64 108 1.0 3.0 0.00 0.02 0.02 58 1013.3
20260508193049 64 120 2.0 6.0 0.00 0.02 0.02 57 1013.3
20260508191539 65 89 1.0 7.0 0.00 0.02 0.02 56 1013.3
20260508190038 65 91 2.0 6.0 0.00 0.02 0.02 54 1013.1
20260508184538 66 128 2.0 10.0 0.00 0.02 0.02 52 1013.1
20260508183048 66 132 6.0 11.0 0.00 0.02 0.02 51 1013.1
20260508181550 66 140 7.0 11.0 0.00 0.02 0.02 49 1012.9
20260508180040 67 128 5.0 11.0 0.00 0.02 0.02 49 1012.8
20260508174538 67 146 5.0 12.0 0.00 0.16 0.02 47 1012.8
20260508173039 68 126 5.0 13.0 0.00 0.16 0.02 47 1012.4
20260508171542 69 92 5.0 12.0 0.00 0.16 0.02 46 1012.5
20260508170036 70 123 7.0 14.0 0.00 0.16 0.02 44 1012.5
20260508164534 70 119 8.0 15.0 0.00 0.18 0.02 42 1012.4
20260508163042 72 73 7.0 13.0 0.00 0.18 0.02 39 1012.4
20260508161539 72 94 4.0 11.0 0.00 0.18 0.02 37 1012.3
20260508160040 72 82 5.0 12.0 0.00 0.18 0.02 36 1012.2
20260508154539 72 103 7.0 12.0 0.00 0.19 0.02 36 1012.2
20260508153037 72 113 4.0 12.0 0.00 0.19 0.02 38 1012.2
20260508151544 73 110 7.0 14.0 0.00 0.19 0.02 39 1012.2
20260508150046 72 103 4.0 11.0 0.00 0.19 0.02 38 1012.4
20260508144544 72 198 5.0 11.0 0.00 0.19 0.02 40 1012.4
20260508143041 71 183 4.0 12.0 0.00 0.19 0.02 41 1012.3
20260508141538 71 171 5.0 10.0 0.00 0.19 0.02 43 1012.5
20260508140044 72 136 4.0 9.0 0.00 0.19 0.02 41 1012.6
20260508134537 71 62 3.0 9.0 0.00 0.19 0.02 40 1012.7
20260508133042 71 180 3.0 8.0 0.00 0.19 0.02 40 1012.7
20260508131534 69 247 2.0 5.0 0.00 0.19 0.02 41 1013.1
20260508130034 69 186 4.0 10.0 0.00 0.19 0.02 41 1013.3
20260508124538 69 175 3.0 8.0 0.00 0.19 0.02 42 1013.3
20260508123039 68 318 2.0 4.0 0.00 0.19 0.02 43 1013.5
20260508121538 68 0 2.0 5.0 0.00 0.19 0.02 44 1013.8
20260508120040 68 78 0.0 3.0 0.00 0.19 0.02 47 1013.9
20260508114536 66 0 2.0 6.0 0.00 0.19 0.02 51 1014.1
20260508113107 64 297 2.0 9.0 0.00 0.19 0.02 54 1014.5
20260508111538 63 301 4.0 9.0 0.00 0.19 0.02 57 1014.7
20260508110038 63 307 4.0 10.0 0.00 0.19 0.02 60 1015.1
20260508104550 61 284 4.0 8.0 0.00 0.19 0.02 65 1015.3
20260508103035 60 283 6.0 10.0 0.00 0.19 0.02 65 1015.4
20260508101540 60 295 4.0 11.0 0.02 0.19 0.02 66 1015.4
20260508100040 60 311 3.0 9.0 0.02 0.19 0.02 66 1015.3